Wind_Speed
37 34 29 26 26 26 27 27 27 29 31 32 31 31 32 32 32 31 30 30 30 29 27 25 22 19 17 16 14 12 10 9 7 6 5 6 7 8 9 10 10 11 12 13 14 15 15 16 16 17 17 17 17 17 16 16 16 15 15 15 14 15 15 16 17 17 19 20 20
35 32 28 26 26 26 26 26 27 30 31 31 31 31 31 32 31 31 30 30 29 28 26 24 21 19 17 15 14 12 10 9 7 6 6 6 7 8 9 10 11 11 12 13 14 15 15 16 16 17 17 17 17 17 16 16 15 15 15 15 15 15 16 16 17 18 19 20 21
32 29 27 26 25 25 25 26 28 30 30 31 31 31 32 31 31 30 30 29 28 27 25 23 21 19 17 15 13 12 10 8 7 6 6 7 8 8 9 10 11 12 13 13 14 15 16 16 17 17 17 17 17 16 16 16 15 15 15 15 15 16 16 17 18 19 19 20 21
29 27 25 25 24 24 25 26 28 28 29 29 31 32 32 31 30 30 29 29 28 26 24 22 20 18 17 15 13 12 10 8 7 7 7 7 8 8 9 10 11 12 13 13 14 15 16 16 17 17 17 16 16 16 16 16 15 15 15 15 16 16 17 18 19 19 20 21 22
27 25 24 24 24 25 26 26 26 27 27 28 31 32 32 31 30 30 29 29 28 26 24 21 20 18 16 14 13 11 10 8 7 7 7 8 8 9 9 10 11 12 13 14 14 15 16 16 17 17 16 16 16 15 15 15 15 15 16 16 16 17 18 19 19 20 21 22 23
26 24 24 24 24 25 26 26 26 26 27 28 30 31 32 31 30 30 30 29 27 25 23 21 19 17 16 14 13 11 10 8 8 7 7 8 8 9 9 10 11 12 13 14 14 15 16 16 17 16 16 16 15 15 15 15 15 16 16 17 18 18 19 19 20 21 22 22 23
25 24 24 24 25 25 25 26 26 27 27 28 30 31 31 31 30 30 29 28 26 24 22 20 18 17 15 14 12 11 10 8 8 8 8 8 9 9 10 10 11 12 13 14 14 15 16 16 16 16 16 16 15 15 15 15 15 16 17 18 19 19 20 20 21 22 22 23 24
25 24 24 24 24 24 24 25 27 28 28 29 30 31 31 30 30 30 28 27 25 23 21 19 18 16 15 13 12 11 9 8 8 8 8 8 9 9 10 10 11 12 13 14 14 15 16 16 16 16 16 16 15 15 15 15 16 16 17 18 19 20 21 21 22 23 23 24 24
26 24 24 23 23 23 24 25 27 28 29 30 31 31 31 30 29 29 27 26 24 22 20 18 17 16 14 13 12 10 9 9 8 8 8 8 9 9 10 11 11 12 13 13 14 15 15 16 16 15 15 15 15 15 16 16 16 17 17 18 19 20 21 22 23 24 24 25 25
26 25 24 23 23 23 24 26 28 29 31 32 32 31 30 29 28 27 26 24 22 21 19 18 17 15 14 13 12 10 9 9 8 8 8 9 9 9 10 11 11 12 13 13 14 14 15 15 15 15 15 15 15 16 16 17 17 18 18 19 20 21 22 23 24 24 25 26 26
25 25 24 24 23 24 25 27 30 31 32 33 32 31 30 29 27 26 24 23 21 20 18 17 16 15 14 13 11 10 9 9 8 8 8 9 9 9 10 11 11 12 13 13 13 14 15 15 15 16 16 16 16 16 17 17 18 18 19 20 21 21 22 23 24 25 26 26 27
25 25 25 24 24 25 27 29 32 33 34 33 32 30 29 28 26 25 23 22 20 19 18 17 16 15 13 12 11 10 9 8 8 8 8 9 9 9 10 11 11 12 12 13 13 14 14 15 15 15 16 16 17 17 17 18 19 19 20 21 21 22 23 24 25 25 26 27 27
25 25 25 25 25 27 29 31 33 34 34 32 31 30 28 27 25 23 22 20 19 18 17 16 15 14 13 11 10 9 9 8 8 8 8 9 9 9 10 11 11 12 12 13 13 14 14 15 15 15 16 16 17 18 18 19 19 20 21 21 22 23 23 24 25 26 26 27 27
25 25 25 26 27 29 31 33 34 34 33 32 30 29 27 26 24 22 21 19 18 17 17 16 15 13 12 11 10 9 8 8 8 8 8 9 9 9 10 11 11 12 12 13 14 14 15 15 15 16 16 17 17 18 19 19 20 21 21 22 22 23 24 25 25 26 27 27 28
25 25 26 28 29 31 33 34 35 34 32 31 29 28 26 25 23 21 20 19 18 17 16 15 14 13 11 10 9 9 8 8 8 8 8 8 9 9 10 11 11 12 13 13 14 14 15 15 16 16 17 17 18 19 19 20 21 21 22 22 23 24 24 25 26 26 27 27 28
25 26 28 30 31 33 35 35 34 33 31 30 28 26 25 23 21 20 19 18 17 16 15 14 13 12 11 10 9 8 8 8 8 8 8 8 9 10 10 11 12 12 13 14 15 15 16 16 16 17 17 18 18 19 20 21 21 22 23 23 24 24 25 26 26 27 27 28 28
26 28 29 31 33 34 35 35 34 32 30 28 26 25 23 21 20 19 18 17 17 16 15 13 12 11 10 9 9 8 8 8 7 8 8 8 9 10 11 11 12 12 13 14 15 16 16 17 17 17 18 18 19 20 20 21 22 23 23 24 24 25 26 26 27 27 28 28 28
27 29 31 32 34 35 35 34 32 30 28 26 25 23 21 20 18 18 17 16 15 14 13 12 11 10 9 8 8 8 7 7 7 7 8 9 9 10 11 11 12 13 13 14 15 16 17 17 18 18 19 19 20 21 21 22 22 23 24 24 25 25 26 27 27 28 28 29 29
29 30 32 33 34 34 34 32 30 28 26 24 22 21 19 18 17 17 16 15 14 14 13 12 11 10 9 8 8 7 7 7 7 7 8 9 10 11 11 12 12 13 14 14 15 16 17 17 18 19 20 20 21 22 22 23 23 24 24 25 25 26 27 27 27 28 29 29 29
30 31 33 34 34 34 32 30 28 26 24 22 21 19 18 17 17 16 15 14 14 13 12 11 10 9 8 8 7 7 6 6 7 8 9 10 10 11 11 12 13 13 14 15 16 16 17 18 19 20 20 21 22 22 23 23 24 24 25 25 26 26 27 27 28 29 29 29 30
31 32 33 34 33 32 30 28 26 24 22 21 19 18 17 17 16 15 14 14 13 12 11 10 9 8 7 7 6 6 6 7 7 8 9 10 11 11 12 12 13 14 15 15 16 17 18 18 19 20 21 22 22 23 23 23 24 24 25 26 26 26 27 28 28 29 29 29 30
31 32 33 33 32 31 29 27 25 23 21 20 18 17 17 16 15 15 14 14 13 12 10 9 8 7 7 6 6 6 6 7 8 9 10 10 11 11 12 12 13 14 15 16 16 17 18 19 20 21 22 23 23 24 24 24 24 25 25 26 26 26 27 27 28 29 29 29 29
31 32 32 32 31 29 27 25 23 21 20 19 18 17 16 16 15 15 14 13 12 11 9 8 7 7 6 6 6 6 7 8 9 10 10 11 11 12 12 13 14 14 15 16 17 18 19 20 21 22 22 23 23 24 24 25 25 25 25 26 26 26 27 27 28 28 28 28 28
30 31 31 30 29 27 25 24 22 21 19 18 17 16 16 16 15 15 14 12 11 9 8 7 7 6 5 5 6 7 8 9 9 10 10 11 11 12 13 13 14 15 16 17 17 18 19 20 21 21 22 22 21 22 23 24 25 26 26 26 26 27 28 28 28 28 28 28 28
30 30 30 29 28 26 24 23 21 20 19 18 17 16 16 16 15 14 12 11 9 8 7 6 6 5 5 6 7 8 8 9 9 10 11 11 12 12 13 14 14 15 16 17 18 19 20 20 21 21 21 21 21 21 22 23 24 25 26 27 27 28 29 29 28 28 28 27 27
29 29 29 28 26 25 23 22 21 19 18 18 17 17 16 15 14 12 10 9 8 7 6 5 5 5 5 6 7 8 8 9 9 10 11 12 12 13 14 14 15 16 17 18 19 19 20 21 21 21 21 22 22 22 23 23 24 25 26 27 28 29 29 29 29 28 28 27 27
28 28 28 27 25 24 23 21 20 19 18 18 17 16 15 14 12 10 9 7 6 6 5 5 5 5 6 7 7 8 8 9 10 10 11 12 13 13 14 15 16 17 18 18 19 20 20 21 21 21 22 22 23 23 24 24 24 25 26 27 28 28 28 28 28 28 28 27 27
28 28 27 26 25 23 22 21 20 19 18 17 16 15 13 12 10 8 7 6 6 5 5 5 5 6 7 7 7 8 8 9 10 11 12 12 13 14 15 16 17 17 18 19 20 20 20 21 21 21 22 22 23 24 24 24 25 25 26 27 27 27 27 27 27 27 27 27 26
27 27 26 25 24 23 22 21 20 19 18 16 15 13 11 10 8 7 6 6 5 5 5 5 6 6 7 7 7 8 9 10 11 11 12 13 14 14 15 16 17 18 19 19 20 20 21 21 21 22 22 23 24 24 24 24 24 25 26 26 26 26 26 27 27 27 26 26 25
26 25 25 24 23 22 21 20 19 18 16 15 13 11 10 8 7 7 6 5 5 4 5 5 6 6 6 7 7 8 9 10 11 12 12 13 14 15 16 17 18 18 19 19 20 20 21 21 22 22 23 24 24 25 25 24 24 25 26 26 27 27 27 27 27 26 25 24 23
25 24 23 23 22 21 20 19 17 16 14 13 11 10 9 8 7 6 5 5 4 5 5 6 6 6 6 7 8 9 10 11 11 12 13 14 15 16 17 18 18 19 19 20 20 20 21 22 22 23 24 24 25 25 25 25 25 25 25 26 26 26 26 26 26 25 23 22 20
24 23 22 21 21 20 19 17 16 14 13 11 10 9 8 7 6 5 5 4 4 5 5 5 6 6 7 7 8 9 10 11 12 13 14 15 16 17 18 18 19 19 19 20 20 21 21 22 23 24 24 25 26 26 26 25 25 25 25 25 26 26 25 25 24 23 21 19 18
22 22 21 20 20 19 17 16 14 13 12 10 9 8 7 7 6 5 5 5 5 5 5 6 6 6 7 8 9 10 11 12 13 14 15 15 16 17 18 19 19 19 20 20 21 21 22 23 24 24 25 26 26 26 26 25 24 24 24 24 24 24 24 23 23 21 20 18 17
21 21 20 19 18 17 16 14 13 12 11 10 9 8 7 6 5 5 5 5 4 5 5 5 6 7 7 8 9 10 11 12 14 14 15 16 17 18 18 19 19 20 20 20 21 22 23 24 24 25 26 27 27 26 25 24 23 23 23 23 23 23 22 22 21 20 19 18 17
20 19 19 18 17 15 14 13 12 11 10 9 8 7 7 6 5 5 5 4 4 4 5 5 6 7 8 9 10 11 12 13 14 15 16 17 17 18 18 19 20 20 21 21 22 22 23 24 25 26 27 27 27 25 24 22 21 21 22 22 21 20 20 20 20 19 19 18 17
19 18 17 16 15 14 12 11 10 10 9 8 8 7 6 6 5 5 4 3 3 4 5 6 7 7 8 10 11 12 13 14 15 16 17 17 18 18 18 19 20 21 21 22 22 23 24 25 26 27 27 27 26 24 22 21 20 20 20 19 19 18 18 18 18 18 17 17 18
17 16 15 14 13 12 11 10 9 9 9 9 8 7 6 5 4 3 3 3 3 5 5 6 7 8 9 10 12 13 14 15 16 16 17 18 18 18 19 20 20 21 22 23 23 24 25 26 26 27 27 26 25 23 21 20 19 18 17 17 17 17 17 17 16 16 17 18 19
15 14 13 12 11 10 10 9 9 10 9 9 8 6 5 4 3 2 2 3 4 5 6 7 8 9 10 11 13 14 15 15 16 17 17 18 18 19 19 20 21 22 23 24 24 25 26 26 26 26 26 25 23 22 20 18 17 16 16 16 17 16 16 15 16 17 18 19 19
14 12 11 10 10 10 10 10 10 10 9 8 7 5 4 3 2 2 2 3 4 5 6 7 8 10 11 12 13 15 15 16 16 17 18 18 19 19 20 21 22 23 24 25 25 26 26 26 26 26 25 24 22 20 18 16 16 16 16 16 16 16 15 15 16 18 20 20 19
13 12 11 10 10 11 11 11 10 9 8 6 5 4 3 2 2 2 3 4 4 5 7 8 9 11 12 13 14 15 16 17 17 17 18 19 19 20 21 22 23 24 25 25 26 26 26 26 25 25 24 22 20 18 16 15 15 15 15 15 15 15 16 17 18 20 20 20 19
13 13 12 12 11 11 10 10 9 8 6 5 4 3 2 2 3 3 4 4 5 6 7 9 10 11 12 13 14 15 16 17 18 18 19 19 20 21 22 23 24 25 25 26 26 26 26 25 24 23 22 21 18 16 14 14 14 15 15 15 15 16 17 19 20 20 19 19 19
Wind_Direction
217 217 218 218 217 213 209 207 206 204 201 199 197 194 193 193 194 197 199 201 203 204 205 207 209 213 216 219 222 225 229 235 243 257 276 291 301 308 313 317 320 324 326 329 330 331 331 331 331 332 332 333 333 333 333 333 333 332 331 331 332 332 332 332 332 332 332 331 330
217 217 217 215 211 207 204 203 202 200 199 198 197 195 194 194 196 198 199 201 202 204 205 207 210 214 217 220 223 227 231 237 247 261 278 291 300 306 311 316 319 323 326 328 329 330 330 329 330 330 331 331 332 332 332 332 332 331 330 330 329 330 330 330 330 330 329 329 328
217 215 212 207 203 200 199 199 196 195 196 197 196 195 194 195 197 198 199 200 201 203 205 208 212 215 218 221 225 228 233 240 251 265 279 290 298 304 310 314 319 322 325 327 328 328 328 328 328 329 329 330 331 331 331 330 330 329 328 327 327 327 327 327 327 327 327 327 326
214 209 203 199 198 199 198 194 192 192 194 195 195 194 194 195 196 198 199 200 201 203 206 210 213 216 219 223 226 230 235 243 254 267 279 288 296 302 308 313 318 321 324 326 327 327 327 327 327 328 328 329 329 329 329 328 327 326 325 324 324 324 325 325 325 325 325 325 325
206 200 197 196 198 199 196 191 190 190 192 193 194 194 194 195 196 197 199 200 202 204 207 211 214 218 221 224 228 232 238 246 256 268 278 287 294 300 307 312 316 320 323 324 326 326 326 326 326 327 327 328 328 327 327 326 325 324 322 321 322 322 323 323 323 324 324 324 323
198 195 195 196 195 194 192 190 190 190 191 192 192 193 193 194 195 197 199 201 202 205 208 211 216 219 223 226 230 234 240 247 256 267 277 285 292 299 305 310 315 318 321 323 325 325 326 326 326 326 326 326 326 325 324 324 323 321 321 320 320 321 322 322 322 322 323 323 323
194 193 193 192 190 188 188 189 190 191 191 191 191 192 193 194 196 197 199 201 203 206 209 213 217 221 225 228 231 236 241 248 257 267 275 284 291 298 303 308 313 317 319 322 324 325 326 326 326 326 325 325 324 323 322 322 321 320 319 319 319 320 321 321 321 321 321 321 321
191 189 188 186 185 184 186 189 190 190 189 189 190 191 193 195 196 198 200 202 205 208 212 216 219 223 227 230 233 237 242 249 257 266 275 283 290 296 301 307 311 315 318 321 323 325 326 326 325 325 324 324 322 321 320 319 318 317 317 317 318 319 319 320 320 320 320 320 319
188 186 184 182 182 184 188 190 190 188 187 187 189 191 193 195 197 198 200 203 206 210 214 218 221 225 228 231 234 237 243 250 258 267 275 282 289 294 300 305 310 315 318 320 323 325 325 325 325 324 323 322 320 318 318 317 316 316 315 316 317 318 318 319 319 319 319 318 318
185 183 181 181 183 187 189 189 187 185 185 187 189 191 193 196 197 199 202 204 208 212 216 219 223 226 228 231 234 238 244 251 259 267 274 281 287 293 299 305 310 315 318 320 323 324 325 325 324 323 321 320 318 316 315 315 314 314 315 315 316 317 318 318 318 318 318 318 318
183 181 180 182 186 188 187 184 182 183 186 188 190 191 193 195 198 200 203 206 209 213 217 221 224 226 229 231 234 239 245 252 259 267 274 280 286 293 299 306 311 315 318 321 323 324 325 324 323 321 319 318 316 314 313 313 313 314 314 315 315 316 317 317 317 317 317 317 317
181 181 181 184 186 185 182 179 180 183 186 189 190 192 193 196 198 201 204 207 211 215 219 222 225 227 229 232 235 240 246 253 260 267 273 280 287 294 301 307 311 316 319 321 323 324 324 322 321 319 317 315 314 313 313 313 313 314 314 315 316 316 317 316 316 316 316 316 317
181 182 183 183 182 179 177 177 180 183 187 189 191 192 194 196 198 201 204 208 212 216 220 222 225 227 229 232 236 241 247 254 260 267 274 281 289 296 303 308 313 316 319 321 322 322 322 320 319 317 315 314 313 312 312 313 313 314 314 315 316 316 316 316 316 316 316 316 317
181 181 180 179 176 175 175 178 181 184 187 189 192 193 194 196 198 201 205 209 214 218 221 223 225 227 229 233 238 243 248 254 261 268 275 283 292 299 306 310 314 317 319 320 321 321 319 318 316 315 313 312 311 311 312 313 313 314 314 315 315 315 315 315 315 315 316 316 317
179 178 176 174 173 173 176 179 182 185 188 190 192 194 195 197 199 202 206 211 215 219 222 224 225 227 230 233 238 243 249 255 262 269 278 287 296 303 309 313 316 318 320 320 320 318 317 315 314 313 312 311 311 311 312 313 313 314 314 315 315 315 315 315 315 315 316 316 317
176 174 172 172 172 174 178 181 184 187 189 191 193 195 196 199 201 205 209 213 217 220 222 223 225 227 231 234 238 243 250 256 263 272 282 292 301 308 313 316 318 319 319 319 318 317 315 314 313 312 311 311 311 312 313 313 314 314 314 315 315 315 315 315 315 316 316 317 317
174 172 172 172 174 176 180 183 186 188 190 192 194 196 198 201 205 208 212 215 218 220 222 223 225 228 231 235 239 244 250 258 267 278 289 299 307 312 315 317 317 318 318 317 316 315 314 313 313 312 312 312 312 313 313 314 314 314 314 315 315 315 315 315 316 316 317 317 318
173 172 172 174 176 178 182 185 188 189 191 193 195 198 201 204 208 212 214 217 219 220 222 224 226 228 231 235 240 245 252 261 273 286 297 305 311 314 316 316 316 317 316 315 314 314 313 313 313 313 314 314 314 314 314 314 315 314 315 315 315 315 315 316 317 317 318 318 318
173 173 174 175 177 180 184 187 189 191 193 195 198 201 204 208 211 214 216 217 219 220 221 223 225 228 231 235 242 249 257 267 281 293 302 309 312 314 315 315 315 315 315 314 314 314 313 314 314 314 315 315 315 315 315 315 315 315 315 315 315 316 316 317 317 318 318 318 318
174 174 175 177 179 182 185 188 191 193 196 198 201 205 207 210 213 215 217 218 219 220 221 222 224 227 231 237 244 253 263 275 289 299 306 310 313 314 314 315 315 314 314 314 314 314 314 314 315 315 315 315 315 315 315 315 316 316 316 316 316 316 317 317 317 318 317 317 317
174 175 176 178 181 184 187 190 193 196 199 202 204 207 209 211 213 215 216 218 219 219 219 220 223 226 232 239 248 259 272 285 295 302 307 310 313 314 314 315 315 314 314 314 314 315 315 315 315 315 314 314 314 314 315 316 316 317 317 317 317 317 317 317 317 317 317 317 316
175 176 178 180 183 186 189 192 195 198 201 204 206 208 210 212 213 214 215 217 218 218 218 219 222 227 235 244 255 268 282 293 300 305 308 312 313 315 315 315 315 314 314 315 315 315 316 315 315 315 314 315 315 315 316 317 317 318 318 318 318 317 316 316 316 316 316 315 315
176 178 180 182 185 188 191 194 197 200 202 205 207 209 211 212 213 214 214 215 215 215 216 219 223 230 239 252 267 280 290 297 303 307 310 313 315 315 315 315 315 314 314 315 315 316 316 315 315 315 316 316 317 318 318 318 318 318 318 318 317 317 316 315 315 314 314 313 313
177 180 182 184 187 190 193 195 198 201 203 206 208 210 211 212 212 213 212 212 213 213 215 220 226 234 247 263 278 287 294 300 306 310 313 314 315 316 315 315 315 315 315 315 315 315 315 315 315 315 317 318 318 318 317 318 318 318 317 316 316 316 316 315 314 313 312 312 312
179 182 184 186 188 191 194 197 199 201 204 207 209 210 210 210 210 211 210 210 211 212 215 221 229 242 259 274 285 292 298 304 309 313 315 315 316 315 315 315 315 315 315 315 315 315 314 314 314 315 316 316 317 316 316 316 316 316 316 315 315 316 315 315 314 313 312 312 311
181 183 185 187 189 192 194 197 200 203 205 207 208 208 208 208 208 207 207 207 208 211 216 223 235 253 269 281 290 297 303 308 312 315 315 315 314 314 314 314 314 314 314 314 314 314 314 314 314 315 316 316 317 317 317 316 315 315 315 315 315 315 315 315 314 313 313 312 311
182 184 186 188 190 192 195 198 200 202 204 205 205 205 205 205 204 203 203 204 206 211 218 229 245 263 278 287 294 301 307 311 313 314 313 312 312 313 313 314 314 314 314 314 314 314 314 314 315 316 317 317 318 319 318 317 315 314 314 315 315 315 314 313 313 312 312 312 311
182 184 186 189 191 193 195 198 199 201 202 202 202 202 201 201 199 198 198 200 204 211 222 238 257 272 283 291 299 306 310 312 311 311 310 310 311 312 313 313 314 314 314 314 314 314 315 315 316 317 317 318 319 319 319 318 316 314 314 314 314 313 312 311 311 311 311 312 312
183 185 187 189 191 193 195 196 197 198 198 198 198 197 196 195 194 193 194 197 203 215 232 251 268 280 289 297 304 309 310 309 308 308 309 310 311 312 313 313 314 314 314 314 315 315 316 316 317 317 318 318 319 319 319 317 315 313 313 312 312 311 310 310 310 311 311 311 312
184 186 188 190 191 192 193 194 194 195 194 194 193 192 190 189 189 189 191 196 208 227 248 265 277 286 294 302 308 308 306 305 306 308 309 311 312 312 313 313 313 314 314 315 316 316 317 317 317 318 318 319 319 319 318 316 314 312 311 311 311 311 311 310 311 311 312 311 311
184 186 188 190 191 191 191 191 191 191 190 189 187 185 184 183 184 185 191 203 223 245 262 275 286 295 302 306 305 303 302 303 306 309 310 312 312 313 313 313 314 315 315 316 317 317 318 318 318 318 319 319 319 319 318 316 313 311 311 311 311 311 312 312 313 313 313 312 310
185 187 189 190 190 189 189 188 187 186 185 183 181 180 179 179 182 188 200 219 240 258 272 283 294 301 304 303 301 300 301 305 308 310 312 312 313 313 313 314 315 316 317 318 318 318 318 319 319 319 319 319 319 318 317 315 313 311 310 311 311 313 314 315 316 316 315 313 311
185 187 188 189 188 187 186 185 183 181 179 177 176 174 175 179 187 199 215 233 250 267 280 291 297 299 298 298 299 302 305 308 310 311 312 313 313 314 314 315 316 317 318 318 319 319 319 319 319 319 319 319 318 318 317 316 313 311 311 311 312 313 315 316 317 318 317 316 315
185 186 187 187 186 184 183 180 178 176 174 173 173 174 178 186 198 212 226 241 258 276 289 296 297 295 295 297 301 305 309 311 312 313 313 314 314 315 316 317 317 318 319 319 319 320 320 320 320 320 319 318 318 318 317 316 313 311 311 312 313 314 315 316 317 318 318 317 315
185 185 184 183 182 180 178 175 173 172 172 172 174 180 186 196 208 221 233 249 270 286 292 290 289 291 295 300 305 309 311 312 313 313 314 315 316 317 317 318 318 318 319 320 320 321 321 320 320 319 319 318 318 318 317 316 313 311 311 312 313 314 314 314 315 315 315 314 311
182 182 180 179 177 174 173 171 172 173 174 177 180 185 194 204 217 229 242 264 280 283 281 282 288 294 301 306 309 311 312 313 313 314 315 316 317 318 319 318 319 319 320 321 321 321 321 321 320 319 318 318 319 319 318 316 313 312 312 312 312 311 311 311 311 312 310 309 308
177 177 175 174 172 172 173 175 176 177 177 179 183 191 199 211 222 232 249 270 276 275 279 287 296 302 307 309 311 311 312 313 314 315 316 317 318 319 319 319 319 320 321 322 322 322 321 320 319 319 318 319 319 319 319 317 315 313 311 310 309 308 309 309 309 308 307 307 308
169 170 171 173 174 176 178 178 178 177 178 182 188 196 206 217 224 232 248 263 269 277 287 298 304 307 309 310 311 312 313 314 316 317 318 319 319 320 320 320 320 321 321 322 322 321 321 320 319 318 318 319 319 320 319 318 315 312 310 308 308 308 308 308 307 307 307 308 309
164 167 171 175 178 179 178 176 175 176 180 186 193 201 208 216 221 232 248 262 273 286 296 303 306 308 310 311 312 314 315 316 318 319 319 320 320 320 321 321 321 322 321 321 321 320 320 319 319 318 319 319 320 321 320 318 314 311 309 309 309 309 309 308 307 307 309 311 310
166 168 171 174 175 175 174 174 175 178 183 189 195 198 200 203 216 237 257 272 284 294 301 305 307 309 311 313 315 316 317 319 320 320 321 321 321 321 322 322 322 321 321 321 320 320 319 319 319 319 319 320 321 321 321 317 313 310 310 310 310 310 309 309 309 310 311 311 310
168 168 168 169 169 170 172 174 176 180 184 187 187 185 187 202 225 247 265 282 294 300 304 307 309 311 313 316 317 319 320 320 321 321 322 323 323 323 323 322 322 321 321 320 320 320 319 319 320 320 320 320 321 323 322 317 313 311 311 311 311 310 310 310 311 311 311 310 309
Height
1460 1461 1463 1465 1466 1467 1468 1469 1471 1472 1474 1475 1477 1479 1480 1481 1483 1484 1486 1488 1489 1491 1493 1494 1495 1496 1497 1498 1499 1499 1500 1501 1501 1501 1501 1502 1502 1502 1502 1502 1501 1501 1501 1500 1500 1499 1499 1499 1498 1498 1497 1496 1496 1495 1495 1494 1494 1493 1492 1492 1491 1491 1490 1489 1488 1488 1487 1486 1485
1459 1460 1462 1464 1465 1466 1467 1468 1469 1471 1473 1475 1476 1478 1479 1481 1482 1484 1485 1487 1489 1490 1492 1493 1494 1495 1496 1497 1498 1499 1499 1500 1500 1500 1500 1501 1501 1501 1501 1501 1500 1500 1499 1499 1499 1498 1498 1497 1497 1496 1496 1495 1495 1494 1494 1493 1492 1492 1491 1490 1490 1489 1489 1488 1487 1486 1485 1485 1484
1458 1459 1461 1462 1463 1464 1466 1467 1469 1470 1472 1474 1476 1477 1479 1480 1482 1483 1485 1487 1488 1490 1491 1493 1494 1495 1496 1496 1497 1498 1499 1499 1499 1499 1499 1500 1500 1500 1500 1499 1499 1499 1499 1498 1498 1497 1497 1496 1496 1495 1495 1494 1494 1493 1492 1492 1491 1491 1490 1489 1489 1488 1488 1487 1486 1485 1484 1484 1483
1457 1459 1460 1461 1462 1464 1465 1467 1468 1469 1471 1473 1474 1476 1478 1479 1481 1483 1484 1486 1488 1489 1491 1492 1493 1494 1495 1496 1496 1497 1497 1498 1498 1498 1499 1499 1499 1499 1499 1499 1498 1498 1497 1497 1497 1496 1496 1495 1495 1494 1494 1493 1492 1492 1491 1491 1490 1489 1489 1489 1488 1487 1486 1485 1485 1484 1483 1482 1481
1457 1458 1459 1460 1462 1464 1465 1466 1467 1469 1470 1472 1474 1475 1477 1479 1480 1482 1484 1485 1487 1489 1490 1491 1492 1493 1494 1495 1495 1496 1496 1497 1497 1497 1498 1498 1498 1498 1498 1497 1497 1497 1496 1496 1495 1495 1495 1494 1494 1493 1493 1492 1491 1491 1490 1490 1489 1488 1488 1487 1487 1486 1485 1484 1484 1483 1482 1481 1480
1456 1457 1459 1460 1462 1463 1464 1465 1467 1468 1469 1471 1473 1474 1476 1478 1480 1482 1483 1485 1486 1488 1489 1490 1491 1492 1493 1494 1494 1495 1495 1496 1496 1496 1497 1497 1497 1496 1496 1496 1496 1495 1495 1495 1494 1494 1494 1493 1492 1492 1491 1491 1490 1490 1489 1489 1488 1487 1486 1486 1485 1484 1484 1483 1482 1481 1480 1479 1479
1455 1456 1458 1459 1461 1462 1463 1464 1466 1467 1469 1471 1473 1474 1476 1478 1479 1481 1483 1484 1486 1487 1489 1490 1491 1492 1492 1493 1494 1494 1494 1495 1495 1495 1495 1495 1495 1495 1495 1495 1495 1494 1494 1494 1493 1493 1492 1492 1491 1490 1490 1489 1489 1489 1488 1488 1487 1486 1485 1484 1484 1483 1482 1481 1481 1480 1479 1478 1477
1454 1456 1457 1459 1460 1461 1462 1464 1465 1467 1469 1471 1473 1474 1476 1477 1479 1481 1482 1484 1485 1487 1488 1489 1490 1491 1491 1492 1493 1493 1493 1494 1494 1494 1494 1494 1494 1494 1494 1494 1494 1493 1493 1492 1492 1491 1491 1490 1490 1489 1489 1488 1488 1487 1487 1486 1486 1485 1484 1484 1483 1482 1481 1480 1479 1478 1477 1477 1476
1454 1455 1456 1458 1459 1460 1462 1464 1465 1467 1469 1470 1472 1474 1476 1477 1479 1480 1482 1483 1485 1486 1487 1488 1489 1490 1490 1491 1491 1492 1492 1493 1493 1493 1493 1493 1493 1493 1493 1493 1492 1492 1492 1491 1491 1490 1490 1489 1489 1488 1488 1487 1487 1486 1486 1485 1484 1484 1483 1483 1481 1480 1479 1479 1478 1477 1476 1475 1474
1453 1454 1456 1457 1459 1460 1462 1463 1465 1467 1469 1470 1472 1474 1475 1477 1479 1480 1481 1483 1484 1485 1486 1487 1488 1489 1489 1490 1490 1491 1491 1491 1492 1492 1492 1492 1492 1492 1492 1491 1491 1491 1490 1490 1489 1489 1489 1488 1487 1487 1486 1486 1486 1485 1484 1484 1484 1483 1482 1481 1480 1479 1478 1477 1476 1475 1474 1473 1472
1453 1454 1455 1457 1458 1460 1461 1463 1465 1467 1468 1470 1472 1473 1475 1477 1478 1479 1481 1482 1484 1485 1486 1487 1487 1488 1489 1489 1489 1490 1490 1490 1490 1491 1491 1491 1491 1491 1491 1490 1490 1489 1489 1489 1488 1488 1487 1487 1486 1486 1485 1485 1484 1484 1483 1483 1482 1481 1481 1480 1479 1478 1477 1476 1475 1474 1473 1472 1470
1453 1454 1455 1456 1458 1459 1461 1462 1464 1466 1468 1470 1471 1473 1474 1476 1478 1479 1480 1482 1483 1484 1485 1486 1486 1487 1488 1488 1489 1489 1489 1489 1489 1490 1490 1490 1490 1490 1489 1489 1489 1489 1488 1487 1487 1486 1486 1485 1485 1484 1484 1484 1483 1483 1482 1481 1481 1480 1479 1478 1477 1476 1475 1474 1473 1472 1471 1470 1469
1452 1454 1455 1456 1457 1459 1460 1462 1464 1466 1468 1469 1471 1473 1474 1475 1477 1479 1480 1481 1482 1483 1484 1485 1485 1486 1487 1487 1488 1488 1488 1488 1489 1489 1489 1489 1489 1489 1488 1488 1488 1487 1487 1486 1486 1485 1485 1484 1484 1484 1483 1483 1482 1481 1481 1480 1479 1479 1478 1477 1476 1475 1474 1473 1472 1471 1469 1468 1467
1452 1453 1454 1456 1457 1459 1460 1462 1464 1466 1468 1469 1471 1472 1474 1475 1477 1478 1479 1480 1481 1482 1483 1484 1484 1485 1486 1486 1487 1487 1487 1487 1488 1488 1488 1488 1488 1488 1487 1487 1486 1486 1485 1485 1484 1484 1484 1483 1483 1482 1482 1481 1481 1480 1479 1479 1478 1477 1476 1475 1474 1474 1472 1471 1470 1469 1468 1467 1465
1452 1453 1454 1455 1457 1459 1461 1462 1464 1466 1467 1469 1470 1472 1473 1475 1476 1477 1479 1480 1481 1482 1482 1483 1484 1484 1485 1485 1486 1486 1486 1486 1487 1487 1487 1487 1487 1486 1486 1486 1485 1485 1484 1484 1483 1483 1483 1482 1482 1481 1481 1480 1479 1479 1478 1477 1476 1475 1474 1474 1473 1472 1471 1470 1469 1467 1466 1465 1464
1451 1453 1454 1456 1457 1459 1461 1462 1464 1465 1467 1469 1470 1472 1473 1474 1476 1477 1478 1479 1480 1481 1482 1482 1483 1484 1484 1484 1485 1485 1485 1486 1486 1486 1486 1486 1485 1485 1485 1484 1484 1484 1483 1483 1482 1481 1481 1481 1480 1480 1479 1479 1478 1477 1476 1476 1475 1474 1473 1472 1471 1470 1469 1468 1467 1466 1464 1463 1462
1451 1453 1454 1456 1457 1459 1461 1462 1464 1465 1467 1469 1470 1471 1473 1474 1475 1476 1478 1479 1479 1480 1481 1482 1482 1483 1483 1484 1484 1484 1485 1485 1485 1485 1485 1485 1484 1484 1484 1483 1483 1482 1482 1481 1481 1480 1479 1479 1479 1478 1478 1477 1477 1476 1475 1474 1473 1472 1471 1470 1469 1468 1467 1466 1465 1464 1463 1462 1460
1451 1453 1454 1456 1458 1459 1461 1462 1464 1465 1467 1469 1470 1471 1473 1474 1475 1476 1477 1478 1479 1480 1480 1481 1482 1482 1483 1483 1483 1484 1484 1484 1484 1484 1484 1484 1484 1483 1483 1482 1482 1481 1481 1480 1479 1479 1478 1478 1477 1477 1476 1475 1475 1474 1473 1473 1472 1471 1470 1469 1468 1467 1465 1464 1463 1462 1461 1460 1459
1451 1453 1454 1456 1458 1459 1461 1463 1464 1466 1467 1469 1470 1471 1473 1474 1475 1476 1477 1478 1479 1479 1480 1480 1481 1481 1482 1482 1483 1483 1483 1483 1483 1483 1483 1483 1482 1482 1482 1481 1480 1480 1479 1479 1478 1478 1477 1476 1476 1475 1474 1474 1473 1472 1472 1471 1470 1469 1468 1467 1466 1465 1464 1463 1461 1460 1459 1458 1457
1451 1453 1454 1456 1458 1460 1461 1463 1465 1466 1467 1469 1470 1471 1472 1474 1474 1475 1476 1477 1478 1479 1479 1480 1480 1481 1481 1482 1482 1482 1482 1482 1482 1482 1482 1482 1481 1481 1480 1480 1479 1479 1478 1478 1477 1476 1476 1475 1474 1474 1473 1472 1471 1471 1470 1469 1468 1467 1466 1465 1464 1463 1462 1461 1459 1459 1457 1456 1455
1451 1453 1454 1456 1458 1460 1462 1463 1465 1466 1468 1469 1470 1471 1472 1473 1474 1475 1476 1477 1477 1478 1479 1479 1480 1480 1481 1481 1481 1481 1481 1481 1481 1481 1481 1481 1480 1480 1479 1479 1478 1478 1477 1476 1476 1475 1474 1474 1473 1472 1471 1471 1470 1469 1468 1467 1466 1465 1464 1464 1462 1461 1460 1459 1458 1456 1455 1454 1453
1451 1453 1455 1457 1459 1460 1462 1463 1465 1466 1467 1469 1470 1471 1472 1473 1474 1474 1475 1476 1477 1478 1478 1479 1479 1480 1480 1480 1480 1480 1480 1480 1480 1480 1480 1479 1479 1479 1478 1478 1477 1476 1476 1475 1474 1474 1473 1472 1471 1471 1470 1469 1468 1467 1467 1466 1465 1464 1463 1462 1461 1459 1458 1457 1456 1455 1454 1453 1451
1451 1453 1455 1457 1459 1460 1462 1464 1465 1466 1467 1469 1469 1470 1471 1472 1473 1474 1475 1475 1476 1477 1478 1478 1479 1479 1479 1479 1479 1479 1479 1479 1479 1479 1479 1478 1478 1477 1477 1476 1476 1475 1474 1474 1473 1472 1472 1471 1470 1469 1468 1467 1466 1465 1465 1464 1463 1462 1461 1460 1459 1458 1457 1456 1454 1453 1452 1451 1450
1451 1453 1455 1457 1459 1460 1462 1464 1465 1466 1467 1468 1469 1470 1471 1472 1473 1474 1474 1475 1476 1477 1477 1478 1478 1479 1479 1479 1479 1479 1479 1479 1478 1478 1477 1477 1477 1476 1476 1475 1474 1474 1473 1473 1472 1471 1470 1470 1469 1468 1467 1466 1465 1464 1463 1462 1461 1460 1459 1458 1457 1456 1455 1454 1453 1452 1450 1449 1448
1452 1454 1455 1457 1459 1460 1462 1463 1464 1466 1467 1468 1469 1470 1471 1472 1472 1473 1474 1475 1475 1476 1477 1477 1478 1478 1478 1478 1478 1478 1478 1478 1477 1477 1476 1476 1475 1475 1474 1474 1474 1473 1472 1471 1471 1470 1469 1468 1468 1467 1466 1465 1464 1463 1462 1461 1460 1459 1458 1457 1455 1454 1453 1452 1451 1450 1449 1448 1447
1452 1454 1456 1457 1459 1460 1462 1463 1464 1465 1466 1468 1469 1469 1470 1471 1472 1473 1474 1475 1475 1476 1476 1477 1477 1477 1477 1477 1477 1477 1477 1476 1476 1475 1475 1474 1474 1474 1473 1473 1472 1472 1471 1470 1469 1469 1468 1467 1466 1465 1464 1463 1462 1461 1460 1459 1458 1457 1456 1454 1454 1452 1451 1450 1449 1448 1447 1446 1445
1452 1454 1456 1457 1459 1460 1461 1463 1464 1465 1466 1467 1468 1469 1470 1471 1472 1473 1474 1474 1475 1475 1476 1476 1476 1476 1476 1476 1476 1476 1476 1475 1475 1474 1474 1474 1473 1473 1472 1472 1471 1470 1469 1469 1468 1467 1466 1465 1464 1464 1463 1462 1461 1460 1459 1458 1456 1455 1454 1453 1452 1450 1449 1448 1447 1446 1445 1444 1443
1452 1454 1455 1457 1459 1460 1461 1462 1464 1465 1466 1467 1468 1469 1470 1471 1472 1473 1474 1474 1474 1475 1475 1475 1476 1476 1476 1476 1475 1475 1474 1474 1474 1473 1473 1473 1472 1472 1471 1470 1470 1469 1468 1468 1467 1466 1465 1464 1463 1462 1461 1460 1459 1458 1457 1456 1455 1454 1453 1451 1450 1449 1448 1447 1446 1444 1443 1442 1441
1452 1454 1455 1457 1459 1460 1461 1462 1464 1464 1466 1467 1468 1469 1470 1471 1472 1473 1473 1474 1474 1474 1475 1475 1475 1475 1475 1475 1474 1474 1474 1473 1473 1472 1472 1471 1471 1470 1470 1469 1469 1468 1467 1466 1465 1464 1463 1462 1461 1460 1459 1459 1457 1456 1455 1454 1453 1452 1451 1450 1449 1448 1446 1445 1444 1443 1442 1440 1439
1453 1454 1456 1457 1459 1460 1461 1462 1463 1464 1466 1467 1468 1469 1470 1471 1472 1472 1473 1473 1474 1474 1474 1474 1474 1474 1474 1474 1474 1473 1473 1472 1472 1471 1471 1470 1470 1469 1469 1468 1467 1466 1465 1465 1464 1463 1462 1461 1460 1459 1458 1457 1456 1455 1454 1453 1452 1450 1449 1448 1447 1446 1445 1444 1442 1441 1440 1439 1438
1453 1454 1456 1457 1459 1460 1461 1462 1464 1465 1466 1467 1468 1469 1470 1471 1471 1472 1472 1473 1473 1473 1473 1474 1474 1473 1473 1473 1473 1472 1472 1471 1471 1470 1470 1469 1469 1468 1467 1466 1466 1465 1464 1463 1462 1461 1460 1459 1458 1457 1456 1455 1454 1453 1452 1451 1450 1449 1448 1447 1445 1444 1443 1442 1441 1439 1439 1437 1436
1453 1455 1456 1457 1459 1460 1461 1463 1464 1465 1466 1467 1468 1469 1469 1470 1471 1471 1472 1472 1472 1472 1473 1473 1473 1472 1472 1472 1472 1471 1471 1470 1470 1469 1469 1468 1467 1467 1466 1465 1464 1464 1463 1462 1461 1460 1459 1458 1457 1456 1454 1454 1453 1451 1450 1449 1449 1447 1446 1445 1444 1443 1441 1440 1439 1438 1437 1436 1435
1454 1455 1456 1458 1459 1460 1462 1463 1464 1465 1466 1467 1468 1469 1469 1470 1470 1471 1471 1471 1472 1472 1472 1472 1472 1472 1471 1471 1471 1470 1470 1469 1469 1468 1467 1467 1466 1465 1464 1464 1463 1462 1461 1460 1459 1459 1457 1456 1455 1454 1453 1452 1451 1450 1449 1448 1447 1445 1444 1443 1442 1441 1440 1439 1438 1436 1435 1434 1434
1454 1455 1457 1458 1459 1461 1462 1463 1464 1465 1466 1467 1468 1468 1469 1469 1470 1470 1470 1471 1471 1471 1471 1471 1471 1471 1470 1470 1470 1469 1469 1468 1468 1467 1466 1465 1465 1464 1463 1462 1461 1460 1460 1459 1458 1457 1456 1455 1454 1452 1451 1450 1449 1448 1447 1446 1445 1444 1443 1442 1440 1439 1438 1437 1436 1435 1434 1433 1433
1454 1456 1457 1459 1460 1461 1462 1463 1464 1465 1466 1466 1467 1468 1468 1469 1469 1470 1470 1470 1470 1470 1470 1470 1470 1470 1469 1469 1469 1468 1468 1467 1466 1466 1465 1464 1464 1463 1462 1461 1460 1459 1458 1458 1457 1455 1454 1453 1452 1451 1449 1448 1447 1446 1445 1444 1444 1442 1441 1440 1439 1438 1437 1436 1435 1434 1433 1432 1431
1455 1456 1458 1459 1460 1461 1462 1463 1464 1465 1465 1466 1467 1468 1468 1469 1469 1469 1469 1470 1470 1470 1469 1469 1469 1469 1469 1468 1468 1467 1466 1466 1465 1464 1464 1463 1462 1461 1461 1460 1459 1458 1457 1456 1455 1454 1453 1452 1450 1449 1448 1447 1446 1445 1444 1443 1442 1441 1440 1439 1438 1437 1436 1435 1434 1433 1432 1431 1430
1456 1457 1458 1459 1460 1461 1462 1463 1464 1464 1465 1466 1467 1467 1468 1468 1469 1469 1469 1469 1469 1469 1469 1469 1469 1468 1468 1467 1467 1466 1465 1465 1464 1463 1462 1462 1461 1460 1459 1459 1457 1456 1455 1454 1454 1452 1451 1450 1449 1448 1446 1445 1444 1443 1442 1441 1440 1439 1439 1438 1437 1436 1435 1434 1433 1432 1431 1430 1429
1456 1458 1459 1459 1460 1461 1462 1463 1464 1464 1465 1466 1467 1467 1468 1468 1468 1468 1468 1469 1469 1469 1468 1468 1468 1467 1467 1466 1465 1465 1464 1464 1463 1462 1461 1460 1459 1459 1458 1457 1456 1455 1454 1453 1452 1451 1450 1449 1447 1446 1445 1444 1443 1442 1441 1440 1439 1438 1438 1437 1436 1434 1434 1433 1432 1430 1429 1428 1427
1457 1458 1459 1460 1461 1461 1462 1463 1464 1464 1465 1466 1466 1467 1467 1467 1467 1468 1468 1468 1468 1468 1467 1467 1467 1466 1466 1465 1464 1464 1463 1462 1461 1461 1460 1459 1458 1457 1457 1456 1455 1454 1453 1452 1450 1449 1448 1447 1446 1444 1443 1442 1441 1440 1439 1439 1438 1437 1436 1435 1434 1433 1432 1432 1430 1429 1428 1426 1425
1457 1458 1459 1460 1461 1462 1462 1463 1464 1464 1465 1466 1466 1466 1466 1467 1467 1467 1467 1467 1467 1467 1467 1466 1466 1465 1464 1464 1463 1462 1462 1461 1460 1459 1459 1458 1457 1456 1455 1454 1453 1452 1451 1450 1449 1448 1447 1445 1444 1443 1442 1441 1440 1439 1438 1438 1437 1436 1435 1434 1433 1432 1431 1430 1429 1428 1426 1425 1424
1457 1458 1459 1460 1461 1462 1462 1463 1464 1464 1465 1465 1465 1466 1466 1466 1466 1466 1466 1466 1466 1466 1466 1465 1465 1464 1464 1463 1462 1461 1460 1459 1459 1458 1457 1456 1455 1454 1454 1453 1452 1451 1450 1449 1448 1446 1445 1444 1443 1441 1440 1439 1438 1438 1437 1437 1436 1435 1434 1433 1432 1431 1429 1428 1427 1426 1425 1424 1423